Monte Terminillo, Italy

8:51 AM CEST on September 23, 2017 (GMT +0200)
Monte Terminillo

Weather History for LIRK - October, 2012

Change the Weather History Date:

Wednesday, October 17, 2012

  Actual Average Record
Temperature  
Mean Temperature 42 °F -  
Max Temperature 50 °F 43 °F 58 °F (2016)
Min Temperature 35 °F 34 °F 24 °F (2003)
Degree Days  
Heating Degree Days 22    
Moisture  
Dew Point 35 °F    
Average Humidity 77    
Maximum Humidity 100    
Minimum Humidity 34    
Precipitation  
Precipitation 0.00 in -7.38 in - ()
Sea Level Pressure  
Sea Level Pressure 30.27 in    
Wind  
Wind Speed 5 mph ()    
Max Wind Speed 14 mph    
Max Gust Speed -    
Visibility 4.5 miles    
Events Fog    
Averages and records for this station are not official NWS values.
T = Trace of Precipitation, MM = Missing Value Source: Averaged Metar Reports

Daily Weather History Graph

Daily Weather History Graph

Search for Another Location

Airport or City:

Trip Planner

Search our weather history database for the weather conditions in past years. The results will help you decide how hot, cold, wet, or windy it might be!

Date:

Astronomy

Oct. 17, 2012 Rise Set
Actual Time 7:23 AM CEST 6:22 PM CEST
Civil Twilight 6:55 AM CEST 6:50 PM CEST
Nautical Twilight 6:22 AM CEST 7:23 PM CEST
Astronomical Twilight 5:49 AM CEST 7:55 PM CEST
Moon 9:41 AM CEST (10/17) 7:39 PM CEST (10/17)
Length of Visible Light 11h 55m
Length of Day
10h 58m
Waxing Crescent, 5% of the Moon is Illuminated
Oct 17
Waxing Crescent
Oct 22
First Quarter
Oct 29
Full
Nov 7
Last Quarter
Nov 13
New

Hourly Weather History & Observations

Time (CEST) Temp. Dew Point Humidity Pressure Visibility Wind Dir Wind Speed Gust Speed Precip Events Conditions
12:55 AM 37.4 °F 33.8 °F 87% 30.18 in 0.0 mi North - - N/A Fog Fog
1:55 AM 37.4 °F 32.0 °F 81% 30.18 in 0.0 mi North - - N/A Fog Fog
2:00 AM 37 °F 32 °F 77%  in 0 mi WSW 13.8 mph - -  
2:55 AM 35.6 °F 30.2 °F 81% 30.21 in 0.6 mi North - - N/A   Unknown
3:55 AM 35.6 °F 26.6 °F 70% 30.21 in - North - - N/A   Clear
6:55 AM 37.4 °F 35.6 °F 93% 30.21 in - North - - N/A   Clear
7:55 AM 37.4 °F 37.4 °F 100% 30.21 in - North - - N/A   Clear
8:00 AM 37 °F 37 °F 100%  in 9 mi Calm Calm - -  
8:55 AM 37.4 °F 35.6 °F 93% 30.24 in - North - - N/A   Clear
9:55 AM 37.4 °F 33.8 °F 87% 30.27 in - North - - N/A   Clear
10:55 AM 41.0 °F 35.6 °F 81% 30.27 in - North - - N/A   Clear
11:55 AM 42.8 °F 42.8 °F 100% 30.36 in - North - - N/A   Clear
12:55 PM 42.8 °F 42.8 °F 100% 30.27 in - North - - N/A   Clear
1:55 PM 44.6 °F 44.6 °F 100% 30.27 in - North - - N/A   Clear
2:00 PM 45 °F 44 °F 94%  in 16 mi West 4.6 mph - -  
2:55 PM 46.4 °F 42.8 °F 87% 30.33 in - North - - N/A   Clear
3:55 PM 48.2 °F 44.6 °F 87% 30.30 in - North - - N/A   Clear
4:55 PM 48.2 °F 42.8 °F 82% 30.30 in - North - - N/A   Clear
5:55 PM 50.0 °F 44.6 °F 82% 30.30 in - North - - N/A   Clear
6:55 PM 48.2 °F 33.8 °F 58% 30.30 in - North - - N/A   Clear
7:55 PM 48.2 °F 32.0 °F 54% 30.30 in - North - - N/A   Clear
8:00 PM 47 °F 32 °F 43%  in 6 mi West 6.9 mph - -  
8:55 PM 46.4 °F 28.4 °F 50% 30.30 in - North - - N/A   Clear
9:55 PM 46.4 °F 21.2 °F 37% 30.33 in - North - - N/A   Clear
10:55 PM 46.4 °F 19.4 °F 34% 30.33 in - North - - N/A   Clear
11:55 PM 46.4 °F 19.4 °F 34% 30.33 in - North - - N/A   Clear